User: anonymous   Login
Location: Newark
(45.8944°N, 12.5886°E)
Time: 19:03:55
(UTC+00:00)
Language:

Oscar 11 - Orbit

View from above orbital plane
View from above orbital plane
View from above satellite
View from above satellite

Ground track
Ground track

The orbit data is extracted from the following two-line orbital elements,

1 14781U 84021B   20090.55771482  .00000086  00000-0  16687-4 0  9992
2 14781  97.5951 106.4379 0010013  99.4435 260.7912 14.83152799941132
Epoch (UTC): 30 March 2020 13:23:06
Eccentricity: 0.0010013
inclination: 97.5951°
perigee height: 612 km
apogee height: 626 km
right ascension of ascending node: 106.4379°
argument of perigee: 99.4435°
revolutions per day: 14.83152799
mean anomaly at epoch: 260.7912°
orbit number at epoch: 94113

The dashed part of the orbit path shows where the satellite is in the earth's shadow,  

DLR